Location: Palomar Mountain Lodge
(33.3110°N, 116.8495°W)
Time: 20:39:27
(UTC-07:00)

CZ-2C R/B - Pass Details

Date: 14 June 2018
Orbit: 784 x 871 km, 98.4° (Epoch: 18 August)

Event Time Altitude Azimuth Distance (km) Brightness Sun altitude
Rises 22:21:41 0° 24° (NNE) 3,416 6.3 -23.5°
Reaches altitude 10° 22:24:19 10° 33° (NNE) 2,463 5.3 -23.9°
Enters shadow 22:28:18 31° 77° (ENE) 1,412 3.6 -24.3°
